[[{"header":{"parameterUnit":"m.s-1","parameterCategory":1,"la1":30.2991,"la2":30.254,"lo1":-89.0895,"lo2":-89.0444,"dy":0.0017,"dx":0.0017,"nx":28,"ny":28,"refTime":"2024-03-09T03:00:00:Z","depth":0,"parameterNumber":2,"parameterNumberName":"U-component_of_WINDS"},"data":[0,0,0,0,0,0,0,0,0,0,0,0,0,0,0,0,0,0,0,0,0,0,0,0,0,0,0,0,0,0,0,0,0,0,0,0,0,0,0,0,0,0,0,0,0,0,0,0,0,0,0,0,0,0,0,0,0,0,3.0417,3.0418,0,3.0492,3.0493,3.0494,3.0457,3.0455,3.0453,3.0451,3.0532,3.0536,3.054,0,0,0,0,0,0,0,0,0,0,0,0,0,3.0247,3.025,3.0417,3.0418,3.0419,3.0492,3.0493,3.0494,3.0457,3.0455,3.0453,3.045,3.0531,3.0536,3.054,0,0,0,0,0,0,0,0,0,0,0,0,0,3.0322,3.0252,3.0417,3.0409,3.0409,3.0491,3.0493,3.0494,3.0458,3.0455,3.0452,3.0449,3.0529,3.0535,3.0541,3.0636,0,0,3.0559,3.0562,0,0,0,0,0,0,0,0,3.0317,3.0328,3.0409,3.041,3.041,3.0462,3.0463,3.0542,3.0459,3.044,3.0451,3.0448,3.0512,3.0519,3.0539,3.064,3.0643,3.056,3.0563,3.0566,3.0568,0,0,0,0,0,0,0,3.0312,3.0324,3.0447,3.0411,3.0411,3.0404,3.0411,3.0477,3.0491,3.0441,3.0438,3.0448,3.0511,3.0534,3.0541,3.0645,3.056,3.0565,3.0569,3.0571,3.083,3.0833,0,0,0,0,0,0,3.0307,3.032,3.0444,3.0449,3.0355,3.0409,3.0417,3.0448,3.049,3.0494,3.045,3.0446,3.0525,3.0534,3.0544,3.0659,3.0566,3.0571,3.0575,3.0827,3.0831,3.0834,0,0,0,0,0,0,3.0303,3.0318,3.0441,3.0384,3.0399,3.0415,3.045,3.0451,3.0474,3.0497,3.05,3.047,3.0523,3.0535,3.0614,3.0661,3.0574,3.058,3.0823,3.0828,3.0832,3.089,0,0,0,0,0,0,3.0298,3.0317,3.0352,3.0385,3.0402,3.0508,3.0453,3.0455,3.0484,3.0479,3.0517,3.052,3.0522,3.0605,3.062,3.0668,3.0584,3.0818,3.0825,3.0831,3.0884,3.0896,3.0907,0,0,0,0,0,3.0293,3.0365,3.0354,3.0369,3.0446,3.0511,3.0521,3.052,3.0487,3.0524,3.0539,3.0519,3.0654,3.0613,3.0629,3.068,3.0815,3.0823,3.083,3.0879,3.0894,3.0907,0,0,0,0,0,0,3.0338,3.0369,3.0357,3.0442,3.0474,3.0505,3.055,3.0536,3.0578,3.0572,3.057,3.058,3.0661,3.0679,3.0633,3.0776,3.073,3.0741,3.0761,3.0776,3.0787,3.0781,3.0589,0,0,0,0,0,3.0358,3.0407,3.0432,3.0505,3.0522,3.0534,3.0562,3.0558,3.0592,3.0606,3.0627,3.0661,3.0712,3.0745,3.0792,3.0887,3.0896,3.093,3.0941,3.0951,3.096,3.1014,3.103,3.0859,3.0859,3.0858,0,0,3.04,3.0423,3.0454,3.0515,3.0539,3.0592,3.0545,3.0602,3.0642,3.0615,3.069,3.0707,3.0746,3.0833,3.0872,3.085,3.101,3.096,3.0967,3.0972,3.1023,3.1039,3.1054,3.0864,3.0863,3.0862,0,0,3.0503,3.0524,3.0588,3.0614,3.0651,3.0659,3.0675,3.0708,3.0718,3.0793,3.0775,3.0823,3.0909,3.0938,3.0964,3.1081,3.1065,3.1097,3.1157,3.1209,3.1222,3.1234,3.1278,3.1293,3.1106,3.1106,3.1106,0,3.055,3.0627,3.0623,3.0682,3.0711,3.0689,3.0755,3.078,3.0832,3.0853,3.0827,3.0936,3.0961,3.1055,3.1084,3.1105,3.1125,3.1092,3.122,3.1233,3.1244,3.1285,3.1301,3.111,3.111,3.1109,3.1109,0,3.0684,3.0738,3.0785,3.0835,3.0869,3.0931,3.094,3.0975,3.0969,3.0981,3.1059,3.1088,3.1142,3.1164,3.1159,3.1259,3.1244,3.122,3.1173,3.1264,3.1302,3.1318,3.1115,3.1114,3.1113,3.1112,0,0,3.0816,3.0864,3.0882,3.0905,3.0946,3.0989,3.1051,3.1103,3.1134,3.1171,3.1225,3.13,3.1278,3.1307,3.1306,3.1352,3.1445,3.1322,3.1323,3.1345,3.1559,3.1577,3.1596,3.1435,3.1438,3.144,3.1556,0,3.0922,3.103,3.103,3.1131,3.1182,3.1163,3.1218,3.125,3.1263,3.131,3.1324,3.1378,3.1344,3.1362,3.1406,3.1424,3.1488,3.1416,3.1486,3.1489,3.1477,3.1616,3.1635,3.1743,3.1571,3.1574,3.1575,0,3.106,3.1101,3.1207,3.1242,3.1263,3.1312,3.1361,3.1406,3.1443,3.1449,3.1484,3.1476,3.1543,3.1495,3.1587,3.1538,3.1567,3.1581,3.1585,3.1592,3.1538,3.1627,3.1777,3.1794,3.1599,3.1597,3.1595,0,3.1147,3.1229,3.1303,3.1324,3.1366,3.1402,3.1422,3.1456,3.1488,3.1531,3.1553,3.1604,3.1632,3.1673,3.168,3.1644,3.1774,3.1726,3.1783,3.1783,3.181,3.1809,3.1968,3.1829,3.1829,3.1828,3.1828,0,3.1266,3.1331,3.1343,3.1388,3.1462,3.1463,3.1537,3.1554,3.1585,3.1636,3.1623,3.1671,3.1678,3.1728,3.1735,3.1812,3.1824,3.1833,3.1834,3.1834,3.1833,3.1853,3.1846,3.1833,3.1832,3.1831,3.183,0,3.1375,3.1385,3.1465,3.1499,3.151,3.1563,3.1593,3.1638,3.165,3.1714,3.173,3.1749,3.1808,3.182,3.189,3.1894,3.1986,3.1979,3.1973,3.1973,3.2029,3.2024,3.2207,3.2232,3.2076,3.2077,3.2079,0,3.145,3.15,3.154,3.1572,3.1594,3.1646,3.1679,3.1683,3.1718,3.1765,3.1805,3.1863,3.1908,3.2004,3.2026,3.208,3.2075,3.2136,3.2083,3.2082,3.2077,3.2074,3.208,3.2146,3.2147,3.2149,3.215,0,3.1582,3.1585,3.1632,3.1682,3.1721,3.1761,3.1798,3.1826,3.1836,3.1876,3.1936,3.1971,3.2043,3.2101,3.2156,3.2178,3.2167,3.2166,3.2182,3.2183,3.2178,3.2183,3.2001,3.2162,3.2161,3.216,3.2159,3.2159,3.1677,3.1721,3.1757,3.1811,3.1839,3.1875,3.192,3.1938,3.1987,3.2045,3.2045,3.2111,3.215,3.2222,3.2248,3.2301,3.2282,3.2305,3.2311,3.2317,3.2323,3.2169,3.2311,3.2311,3.231,3.231,3.231,0,3.181,3.1832,3.1881,3.1934,3.1977,3.1962,3.2004,3.2041,3.2098,3.2135,3.2181,3.2251,3.2308,3.2335,3.2392,3.2429,3.2426,3.2444,3.2441,3.2447,3.2336,3.2316,3.2446,3.2446,3.2446,3.2446,3.2446,3.2446,3.1883,3.1958,3.1966,3.2056,3.2079,3.2142,3.2167,3.2202,3.2231,3.2309,3.2356,3.2373,3.2407,3.2467,3.2519,3.2526,3.2548,3.2569,3.2573,3.2469,3.2455,3.2442,3.2424,3.2574,3.2574,3.2681,3.2682,3.2682]},{"header":{"parameterUnit":"m.s-1","parameterCategory":1,"la1":30.2991,"la2":30.254,"lo1":-89.0895,"lo2":-89.0444,"dy":0.0017,"dx":0.0017,"nx":28,"ny":28,"refTime":"2024-03-09T03:00:00:Z","depth":0,"parameterNumber":3,"parameterNumberName":"V-component_of_WINDS"},"data":[0,0,0,0,0,0,0,0,0,0,0,0,0,0,0,0,0,0,0,0,0,0,0,0,0,0,0,0,0,0,0,0,0,0,0,0,0,0,0,0,0,0,0,0,0,0,0,0,0,0,0,0,0,0,0,0,0,0,0.9814,0.9816,0,1.0009,1.0011,1.0013,1.0038,1.0036,1.0034,1.0033,1.0236,1.0243,1.025,0,0,0,0,0,0,0,0,0,0,0,0,0,0.9466,0.9473,0.9814,0.9816,0.9819,1.0008,1.0011,1.0014,1.0038,1.0036,1.0034,1.0032,1.0233,1.0242,1.0251,0,0,0,0,0,0,0,0,0,0,0,0,0,0.9635,0.9475,0.9813,0.9854,0.9859,1.0008,1.0011,1.0014,1.0039,1.0036,1.0033,1.0031,1.0231,1.0241,1.0252,1.0374,0,0,1.0285,1.0289,0,0,0,0,0,0,0,0,0.9625,0.9648,0.9845,0.9851,0.9858,0.9996,0.9963,1.0135,1.004,0.9971,1.0032,1.0029,1.0159,1.0175,1.0218,1.0384,1.0393,1.0286,1.0292,1.0297,1.03,0,0,0,0,0,0,0,0.9614,0.9639,0.9891,0.9848,0.9856,0.9863,0.9884,0.9996,1.0078,0.9977,0.9979,1.0001,1.0161,1.0207,1.0223,1.0396,1.0285,1.0295,1.0301,1.0306,1.0673,1.0676,0,0,0,0,0,0,0.9594,0.9629,0.9885,0.9897,0.9732,0.9872,0.9895,0.9955,1.0077,1.0093,1.0004,1.0002,1.0191,1.021,1.023,1.0383,1.0297,1.0307,1.0313,1.0669,1.0673,1.0677,0,0,0,0,0,0,0.9586,0.9616,0.9877,0.9764,0.9797,0.9881,0.9947,0.996,1.0006,1.0097,1.0113,1.0035,1.0189,1.0215,1.0338,1.039,1.0311,1.0321,1.0665,1.0671,1.0675,1.0688,0,0,0,0,0,0,0.9576,0.9614,0.9661,0.9765,0.9803,0.9981,0.9951,0.9966,1.0024,1.0024,1.0131,1.0146,1.0189,1.0322,1.0349,1.0403,1.033,1.0661,1.0668,1.0674,1.0683,1.0693,1.0701,0,0,0,0,0,0.9564,0.9657,0.9663,0.9693,0.9864,0.9984,1.0006,1.0052,1.0028,1.0076,1.0135,1.0143,1.0379,1.0334,1.0365,1.0423,1.0658,1.0666,1.0673,1.0679,1.0691,1.0701,0,0,0,0,0,0,0.9559,0.9672,0.9679,0.9809,0.9886,0.9988,1.005,1.0063,1.015,1.0146,1.02,1.0224,1.0345,1.0396,1.0344,1.0549,1.0517,1.0531,1.0511,1.0523,1.0531,1.0517,1.0339,0,0,0,0,0,0.9572,0.9659,0.9754,0.9859,0.9897,0.9967,1.0021,1.0049,1.0132,1.0166,1.0234,1.0315,1.0408,1.0468,1.0558,1.069,1.0715,1.0745,1.0754,1.0761,1.0773,1.0847,1.0862,1.0701,1.0701,1.0701,0,0,0.9602,0.9674,0.9726,0.986,0.9923,1.0013,0.9994,1.0091,1.0158,1.0181,1.0301,1.0354,1.0448,1.0576,1.0636,1.0623,1.0822,1.077,1.0775,1.0783,1.0856,1.0871,1.0885,1.0706,1.0705,1.0705,0,0,0.9702,0.9765,0.986,0.9923,1.0019,1.0065,1.0087,1.0187,1.0222,1.0343,1.0362,1.0444,1.0602,1.0669,1.0723,1.0847,1.0859,1.0875,1.0922,1.0994,1.1006,1.1018,1.1064,1.1079,1.0886,1.0886,1.0886,0,0.9728,0.9863,0.9907,1.0003,1.0061,1.0084,1.0181,1.0241,1.0362,1.0402,1.0384,1.0583,1.0649,1.0793,1.0823,1.0866,1.0895,1.0864,1.1,1.1013,1.1024,1.1068,1.1085,1.0888,1.0888,1.0888,1.0887,0,0.989,0.9983,1.0048,1.0163,1.0229,1.0324,1.0384,1.0446,1.0468,1.0515,1.0639,1.0717,1.0824,1.086,1.0883,1.1008,1.0997,1.0989,1.0959,1.104,1.1083,1.11,1.089,1.089,1.0889,1.0889,0,0,0.9994,1.0131,1.0154,1.0207,1.0313,1.0387,1.0484,1.0587,1.0639,1.0721,1.0805,1.0937,1.0931,1.0993,1.1023,1.1086,1.1181,1.1071,1.1074,1.109,1.1325,1.1331,1.135,1.1188,1.1191,1.1194,1.1317,0,1.0108,1.028,1.0323,1.047,1.0558,1.058,1.0664,1.0739,1.0786,1.0868,1.092,1.1013,1.0997,1.1035,1.1097,1.1156,1.1229,1.1147,1.1268,1.1272,1.1245,1.1372,1.1379,1.1492,1.1334,1.1337,1.1339,0,1.0265,1.0349,1.0505,1.06,1.0638,1.0713,1.0811,1.0888,1.0974,1.1003,1.1072,1.1096,1.1199,1.1161,1.1304,1.1247,1.1299,1.1335,1.134,1.1355,1.1312,1.1392,1.1529,1.1547,1.1365,1.1363,1.1361,0,1.0327,1.0479,1.0592,1.0636,1.0749,1.0802,1.0852,1.0934,1.0994,1.1079,1.1118,1.1215,1.1268,1.1343,1.1393,1.1361,1.1533,1.1499,1.1562,1.1561,1.1599,1.1596,1.1748,1.1628,1.1628,1.1628,1.1628,0,1.0451,1.0546,1.0622,1.0692,1.0799,1.0846,1.0952,1.1002,1.1075,1.1156,1.1181,1.1256,1.1317,1.1401,1.1441,1.1554,1.1577,1.1605,1.1615,1.1605,1.1601,1.1641,1.1635,1.1632,1.1631,1.1631,1.163,0,1.0539,1.0594,1.0719,1.0815,1.0842,1.0917,1.1,1.1069,1.1115,1.1217,1.1244,1.1318,1.1418,1.1474,1.1601,1.1627,1.1754,1.1759,1.1725,1.173,1.179,1.1784,1.1975,1.2003,1.1862,1.1863,1.1864,0,1.0616,1.0689,1.0793,1.0848,1.0899,1.0987,1.1047,1.1097,1.1159,1.1261,1.1318,1.142,1.1504,1.1663,1.1729,1.1825,1.1834,1.1894,1.1849,1.1836,1.1838,1.1833,1.1842,1.1903,1.1904,1.1905,1.1906,0,1.0746,1.0769,1.0854,1.0949,1.102,1.1097,1.1174,1.1218,1.128,1.1348,1.145,1.1515,1.1643,1.1744,1.1846,1.1899,1.1914,1.1919,1.1939,1.193,1.1908,1.1923,1.1748,1.1915,1.1914,1.1913,1.1913,1.1913,1.0833,1.0899,1.0982,1.1077,1.1139,1.121,1.128,1.1334,1.142,1.1527,1.1551,1.1659,1.1743,1.1881,1.1936,1.2022,1.2012,1.204,1.2048,1.2055,1.2058,1.1892,1.2041,1.2041,1.204,1.204,1.204,0,1.0966,1.102,1.1106,1.1212,1.1286,1.1291,1.1376,1.1438,1.1532,1.1608,1.169,1.1808,1.1905,1.1978,1.2078,1.2133,1.2142,1.2158,1.2155,1.2168,1.2061,1.2034,1.2148,1.2148,1.2148,1.2148,1.2148,1.2148,1.1044,1.1157,1.119,1.1334,1.1388,1.1493,1.1542,1.1607,1.1669,1.1798,1.1879,1.1925,1.2,1.2106,1.2196,1.2215,1.2252,1.2267,1.2287,1.2186,1.2175,1.2164,1.2139,1.2274,1.2274,1.2387,1.2388,1.2389]}]]